Home   Weather   Mali i Kaçivelit   Past weeks
Flag for Albania

Past Weather in Mali i Kaçivelit, Albania — Yesterday and Last 2 Weeks

Now
52 °F

Clear.


Feels Like: 52 °F
Forecast: 84 / 57 °F
Wind: 2 mph from Southwest

Location: Tirana Airport

Current Time: Oct 22, 2019 at 8:39:35 am

Latest Report: Oct 22, 2019 at 7:50 am


Visibility: 4 mi

Pressure: 30.15 "Hg

Humidity: 94%

Dew Point: 50 °F

Location of Mali i KaçivelitLocation

Past Weather in Mali i Kaçivelit — Graph

°F

Mali i Kaçivelit Temperature Yesterday

Maximum temperature yesterday: 79 °F (at 1:20 pm)
Minimum temperature yesterday: 52 °F (at 6:50 am)
Average temperature yesterday: 63 °F

High & Low Weather Summary for the Past Weeks

 TemperatureHumidityPressure
High86 °F (Oct 10, 12:50 pm)100% (Oct 12, 5:20 am)30.21 "Hg (Oct 12, 5:20 am)
Low48 °F (Oct 8, 6:20 am)34% (Oct 7, 1:50 pm)29.71 "Hg (Oct 7, 1:20 pm)
Average65 °F78%30.09 "Hg
* Reported Oct 7 7:20 am — Oct 22 7:20 am, Mali i Kaçivelit. Weather by CustomWeather, © 2019

Note: Actual official high and low records may vary slightly from our data, if they occured in-between our weather recording intervals... More about our weather records

Advertising

Mali i Kaçivelit Weather History for the Previous 24 Hours

Scroll right to see more
 ConditionsComfort  
Time TempWeatherWind HumidityBarometerVisibility
7:20 am
Tue, Oct 22
52 °FFog.1 mph94%30.15 "Hg4 mi
6:50 am52 °FFog.2 mph94%30.15 "Hg4 mi
6:20 am54 °FClear.3 mph94%30.15 "Hg4 mi
5:50 am54 °FClear.2 mph94%30.15 "Hg4 mi
5:20 am52 °FClear.5 mph94%30.15 "Hg4 mi
4:50 am54 °FClear.1 mph94%30.15 "Hg5 mi
4:20 am55 °FClear.2 mph94%30.15 "Hg4 mi
3:50 am54 °FClear.2 mph94%30.15 "Hg5 mi
3:20 am55 °FClear.1 mph94%30.15 "Hg4 mi
2:50 am55 °FClear.1 mph94%30.15 "Hg4 mi
2:20 am57 °FClear.3 mph94%30.18 "Hg10 mi
1:50 am55 °FClear.5 mph94%30.18 "Hg10 mi
1:20 am57 °FClear.3 mph94%30.18 "Hg10 mi
12:50 am55 °FClear.5 mph94%30.18 "Hg10 mi
12:20 am57 °FClear.2 mph94%30.18 "Hg10 mi
11:50 pm
Mon, Oct 21
57 °FClear.2 mph94%30.18 "Hg10 mi
11:20 pm57 °FClear.2 mph94%30.18 "Hg10 mi
10:50 pm59 °FClear.3 mph94%30.18 "Hg10 mi
10:20 pm61 °FClear.5 mph88%30.18 "Hg10 mi
9:50 pm59 °FClear.3 mph94%30.18 "Hg10 mi
9:20 pm61 °FClear.3 mph88%30.18 "Hg10 mi
8:50 pm61 °FClear.5 mph94%30.18 "Hg10 mi
8:20 pm61 °FClear.5 mph88%30.18 "Hg10 mi
7:50 pm63 °FClear.2 mph83%30.18 "Hg10 mi
7:20 pm64 °FClear.No wind83%30.18 "Hg10 mi
6:50 pm66 °FClear.No wind83%30.18 "Hg10 mi
6:20 pm68 °FClear.2 mph78%30.15 "Hg10 mi
5:50 pm70 °FSunny.5 mph73%30.15 "Hg10 mi
5:20 pm72 °FSunny.5 mph69%30.15 "Hg10 mi
4:50 pm75 °FSunny.6 mph61%30.15 "Hg10 mi
4:20 pm73 °FSunny.8 mph57%30.15 "Hg10 mi
3:50 pm75 °FSunny.8 mph57%30.15 "Hg10 mi
3:20 pm77 °FSunny.7 mph54%30.15 "Hg10 mi
2:50 pm77 °FPassing clouds.8 mph51%30.15 "HgN/A
2:20 pm79 °FSunny.7 mph54%30.18 "Hg10 mi
1:50 pm79 °FSunny.6 mph51%30.18 "Hg10 mi
1:20 pm79 °FPassing clouds.3 mph48%30.18 "HgN/A
12:50 pm77 °FPassing clouds.3 mph51%30.18 "HgN/A
12:20 pm77 °FSunny.2 mph51%30.18 "Hg10 mi
11:50 am77 °FSunny.No wind51%30.21 "Hg10 mi
10:20 am70 °FSunny.1 mph69%30.21 "Hg10 mi
9:50 am64 °FPassing clouds.3 mph78%30.21 "HgN/A
9:20 am63 °FSunny.2 mph83%30.21 "Hg10 mi
8:20 am55 °FClear.1 mph94%30.21 "Hg4 mi
Weather by CustomWeather, © 2019

See weather overview